Location: Beaver Brook Station
(42.3793°N, 71.2203°W)
Time: 07:28:25
(UTC+00:00)

YAOGAN 1 - Pass Details

Date: 29 October 2020
Orbit: 618 x 620 km, 97.9° (Epoch: 23 November)

Event Time Altitude Azimuth Distance (km) Brightness Sun altitude
Rises 23:41:15 0° 175° (S) 2,882 5.9 -22.7°
Reaches altitude 10° 23:43:27 10° 180° (S) 1,981 5.1 -23.1°
Maximum altitude 23:47:42 58° 259° (W) 726 3.1 -23.8°
Drops below altitude 10° 23:51:59 10° 339° (NNW) 1,995 5.4 -24.6°
Sets 23:54:13 0° 344° (NNW) 2,906 6.3 -25.0°
